Regional Weather Roundup
Issued by NWS Jackson, KY

Home | Current Version | Previous Version | Text Only | Print | Product List | Glossary Off
Versions: 1 2 3 4 5 6 7 8 9 10 11 12 13 14 15 16 17 18 19 20 21 22 23 24 25 26 27 28 29 30 31 32 33 34 35 36 37 38 39 40 41 42 43 44 45 46 47 48 49 50

000
ASUS43 KJKL 230010
RWRJKL

EAST KENTUCKY HOURLY WEATHER ROUNDUP
NATIONAL WEATHER SERVICE JACKSON KY
800 PM EDT SUN APR 22 2018

NOTE: "FAIR" INDICATES FEW OR NO CLOUDS BELOW 12,000 FEET WITH
NO SIGNIFICANT WEATHER AND/OR OBSTRUCTIONS TO VISIBILITY.

* THESE REPORTS ARE NOT UNDER NWS QUALITY CONTROL AND MAY NOT
  REPORT WEATHER SUCH AS PRECIPITATION AND FOG.

KYZ079-080-083-085-087-088-110-112-115-119-120-230100
...EASTERN KENTUCKY...

CITY           SKY/WX    TMP DP  RH WIND       PRES   REMARKS
JACKSON          N/A     67  35  30 CALM      30.12S
6HR MIN TEMP:  67; 6HR MAX TEMP:  72;

LONDON           N/A     67  47  48 SE6       30.10S
6HR MIN TEMP:  67; 6HR MAX TEMP:  71;

SOMERSET*        N/A     64  43  45 MISG      30.09F
MONTICELLO*    CLOUDY    65  49  56 VRB5      30.08F
6HR MIN TEMP:  65; 6HR MAX TEMP:  71;

WILLIAMSBURG*    N/A     66  46  48 SE10      30.09F
MIDDLESBORO*   CLOUDY    64  49  58 SE5       30.13S
6HR MIN TEMP:  64; 6HR MAX TEMP:  73;

HARLAN APT*      N/A     64  45  50 E7        30.14F
PIKE CO APT*     N/A     68  34  27 E5        30.13S
BIG SANDY APT*   N/A     66  35  31 NE6       30.14S
6HR MIN TEMP:  66; 6HR MAX TEMP:  75;

MOREHEAD APT*  HAZE      64  21  19 E9        30.15S VSB 1
ASHLAND*         N/A     63  30  28 CALM      30.16F
$$

KYZ035-036-041-042-044-050-067-078-099-230100
...CENTRAL KENTUCKY...

CITY           SKY/WX    TMP DP  RH WIND       PRES   REMARKS
MT STERLING*     N/A     63  34  34 NE9       30.13F
FLEMING/MASON*   N/A     60  30  32 E8        30.16F
DANVILLE*        N/A     63  45  51 CALM      30.10S
LEXINGTON      CLOUDY    64  36  35 NE12      30.12S
6HR MIN TEMP:  64; 6HR MAX TEMP:  71; 6HR PCP: TRACE;

FRANKFORT      MOCLDY    66  31  27 NE10      30.10F
6HR MIN TEMP:  66; 6HR MAX TEMP:  73;

LOUISVILLE     CLOUDY    67  40  37 NE10      30.08F
6HR MIN TEMP:  67; 6HR MAX TEMP:  74; 6HR PCP: TRACE;

GLASGOW*       CLOUDY    61  52  71 E6        30.04F
BOWLING GREEN  LGT RAIN  60  57  89 E10       30.03F
6HR MIN TEMP:  59; 6HR MAX TEMP:  64; 6HR PCP:  0.29;

$$

KYZ091>093-OHZ055-061-077-WVZ005-015-034-035-042-230100
...SOUTHERN OHIO/WEST VIRGINIA...

CITY           SKY/WX    TMP DP  RH WIND       PRES   REMARKS
COVINGTON      MOCLDY    63  28  26 E10       30.16S
COLUMBUS       MOCLDY    63  26  24 NE8       30.21S
DAYTON         MOCLDY    60  30  32 E9        30.21S
WILMINGTON       N/A     59  35  40 NE12      30.18F
HUNTINGTON       N/A     64  25  22 NE7       30.16S
CHARLESTON     MOCLDY    66  27  23 NE6       30.16S
PINEVILLE*       N/A     67  40  37 MISG      30.22S
BECKLEY          N/A     61  39  44 SE9       30.21S
BLUEFIELD        N/A     56  41  57 VRB7      30.24S
LOGAN CO APT*    N/A     68  34  28 NE7       30.15S
$$

VAZ002-007-008-TNZ017-027-036-066-071-230100
...SOUTHWEST VIRGINIA/EAST TENNESSEE...

CITY           SKY/WX    TMP DP  RH WIND       PRES   REMARKS
WISE*            N/A     59  46  63 S7        30.21S
JONESVILLE*      N/A     64  46  52 SE3       30.18S
ABINGDON*        N/A     61  44  54 S5        30.21F
BRISTOL        CLOUDY    61  47  59 E8        30.19S
MORRISTOWN*    MOCLDY    63  46  55 SE14G20   30.12F
SEVIERVILLE*   CLOUDY    64  48  55 VRB5      30.09F
KNOXVILLE      LGT RAIN  63  52  67 E6        30.08F
LAFOLLETTE*    MOCLDY    63  52  67 CALM      30.13F
OAK RIDGE      LGT RAIN  61  57  87 CALM      30.10F
CROSSVILLE     LGT RAIN  55  52  89 SE8G16    30.08F
NASHVILLE      LGT RAIN  59  56  89 E12       29.97F
$$

...KEY TO REMARKS...
VSB - VISIBILITY IN MILES
WCI - WIND CHILL INDEX
HX  - HEAT INDEX

$$



USA.gov is the U.S. government's official web portal to all federal, state and local government web resources and services.